| time (UTC) | temp F | wind direction | speed MPH | gust MPH | rain 1hr in | rain 24hr in | rain mn in | humidity % | barometer mb |
| 20260901094510 | 62 | 101 | 3.0 | 11.0 | 0.00 | 0.00 | 0.00 | 64 | 981.8 |
| 20260901093002 | 62 | 107 | 4.0 | 9.0 | 0.00 | 0.00 | 0.00 | 65 | 981.6 |
| 20260901091611 | 61 | 135 | 2.0 | 5.0 | 0.00 | 0.00 | 0.00 | 67 | 981.8 |
| 20260901090100 | 61 | 131 | 0.0 | 6.0 | 0.00 | 0.00 | 0.00 | 66 | 982.0 |
| 20260901084600 | 61 | 115 | 2.0 | 5.0 | 0.00 | 0.00 | 0.00 | 66 | 982.3 |
| 20260901083059 | 62 | 124 | 2.0 | 7.0 | 0.00 | 0.00 | 0.00 | 65 | 982.5 |
| 20260901081557 | 62 | 98 | 2.0 | 7.0 | 0.00 | 0.00 | 0.00 | 64 | 982.6 |
| 20260901080057 | 62 | 110 | 4.0 | 9.0 | 0.00 | 0.00 | 0.00 | 63 | 982.6 |
| 20260901074558 | 63 | 98 | 3.0 | 9.0 | 0.00 | 0.00 | 0.00 | 62 | 982.7 |
| 20260901073057 | 63 | 113 | 3.0 | 7.0 | 0.00 | 0.00 | 0.00 | 63 | 982.6 |
| 20260901071601 | 63 | 90 | 3.0 | 9.0 | 0.00 | 0.00 | 0.00 | 64 | 982.3 |
| 20260901070055 | 63 | 110 | 2.0 | 7.0 | 0.00 | 0.00 | 0.00 | 65 | 982.2 |
| 20260901064555 | 63 | 96 | 3.0 | 7.0 | 0.00 | 0.00 | 0.00 | 65 | 982.2 |
| 20260901063054 | 63 | 102 | 4.0 | 17.0 | 0.00 | 0.00 | 0.00 | 64 | 982.2 |
| 20260901061557 | 64 | 110 | 6.0 | 12.0 | 0.00 | 0.00 | 0.00 | 62 | 982.1 |
| 20260901060052 | 65 | 120 | 3.0 | 11.0 | 0.00 | 0.00 | 0.00 | 60 | 982.3 |
| 20260901054554 | 65 | 89 | 5.0 | 14.0 | 0.00 | 0.00 | 0.00 | 60 | 982.3 |
| 20260901053051 | 65 | 146 | 7.0 | 13.0 | 0.00 | 0.00 | 0.00 | 59 | 982.4 |
| 20260901051547 | 65 | 173 | 3.0 | 22.0 | 0.00 | 0.00 | 0.00 | 59 | 982.7 |
| 20260901050047 | 65 | 68 | 1.0 | 19.0 | 0.00 | 0.00 | 0.00 | 59 | 982.6 |
| 20260901044548 | 65 | 288 | 6.0 | 15.0 | 0.00 | 0.00 | 0.00 | 58 | 982.7 |
| 20260901043044 | 65 | 263 | 2.0 | 12.0 | 0.00 | 0.00 | 0.00 | 57 | 982.9 |
| 20260901041559 | 65 | 126 | 3.0 | 20.0 | 0.00 | 0.00 | 0.00 | 56 | 982.9 |
| 20260901040040 | 65 | 110 | 1.0 | 13.0 | 0.00 | 0.00 | 0.00 | 61 | 983.3 |
| 20260901034540 | 65 | 57 | 3.0 | 18.0 | 0.00 | 0.00 | 0.00 | 56 | 983.7 |
| 20260901033035 | 65 | 108 | 3.0 | 13.0 | 0.00 | 0.00 | 0.00 | 57 | 984.1 |
| 20260901031533 | 65 | 97 | 10.0 | 26.0 | 0.00 | 0.00 | 0.00 | 56 | 984.3 |
| 20260901030029 | 65 | 105 | 4.0 | 18.0 | 0.00 | 0.00 | 0.00 | 56 | 984.8 |
| 20260901024529 | 65 | 103 | 6.0 | 21.0 | 0.00 | 0.00 | 0.00 | 56 | 985.0 |
| 20260901023032 | 64 | 140 | 10.0 | 29.0 | 0.00 | 0.00 | 0.00 | 55 | 985.6 |
| 20260901021524 | 64 | 103 | 13.0 | 25.0 | 0.00 | 0.00 | 0.00 | 56 | 985.9 |
| 20260901020018 | 64 | 105 | 3.0 | 14.0 | 0.00 | 0.00 | 0.00 | 59 | 986.3 |
| 20260901014516 | 64 | 88 | 3.0 | 14.0 | 0.00 | 0.00 | 0.00 | 60 | 986.6 |
| 20260901013015 | 63 | 124 | 9.0 | 17.0 | 0.00 | 0.00 | 0.00 | 59 | 986.8 |
| 20260901011511 | 63 | 106 | 8.0 | 15.0 | 0.00 | 0.00 | 0.00 | 64 | 987.0 |
| 20260901010008 | 62 | 78 | 7.0 | 18.0 | 0.00 | 0.00 | 0.00 | 65 | 987.1 |
| 20260901004506 | 62 | 331 | 5.0 | 13.0 | 0.00 | 0.00 | 0.00 | 67 | 987.5 |
| 20260901003001 | 61 | 89 | 9.0 | 16.0 | 0.00 | 0.00 | 0.00 | 68 | 987.8 |
| 20260901001559 | 61 | 97 | 6.0 | 13.0 | 0.00 | 0.00 | 0.00 | 69 | 988.0 |
| 20260831234556 | 61 | 95 | 6.0 | 12.0 | 0.00 | 0.00 | 0.00 | 69 | 988.5 |
| 20260831233054 | 60 | 340 | 1.0 | 7.0 | 0.00 | 0.00 | 0.00 | 73 | 988.7 |
| 20260831231551 | 60 | 26 | 2.0 | 8.0 | 0.00 | 0.00 | 0.00 | 74 | 988.9 |
| 20260831230047 | 59 | 63 | 1.0 | 8.0 | 0.00 | 0.00 | 0.00 | 75 | 989.1 |
| 20260831224545 | 59 | 266 | 0.0 | 9.0 | 0.00 | 0.00 | 0.00 | 78 | 989.2 |
| 20260831223042 | 58 | 89 | 1.0 | 5.0 | 0.00 | 0.00 | 0.00 | 79 | 989.2 |
| 20260831221540 | 57 | 120 | 1.0 | 4.0 | 0.00 | 0.00 | 0.00 | 80 | 989.2 |
| 20260831220037 | 56 | 122 | 0.0 | 3.0 | 0.00 | 0.00 | 0.00 | 81 | 989.3 |
| 20260831214534 | 54 | 106 | 0.0 | 4.0 | 0.00 | 0.00 | 0.00 | 83 | 989.3 |
| 20260831213035 | 54 | 148 | 2.0 | 6.0 | 0.00 | 0.00 | 0.00 | 85 | 989.4 |
| 20260831211535 | 52 | 111 | 0.0 | 3.0 | 0.00 | 0.00 | 0.00 | 90 | 989.3 |
| 20260831210033 | 50 | 105 | 0.0 | 1.0 | 0.00 | 0.00 | 0.00 | 90 | 989.2 |
| 20260831204536 | 52 | 87 | 0.0 | 2.0 | 0.00 | 0.00 | 0.00 | 87 | 989.4 |
| 20260831203031 | 54 | 105 | 0.0 | 5.0 | 0.00 | 0.00 | 0.00 | 86 | 989.1 |
| 20260831201530 | 55 | 94 | 3.0 | 8.0 | 0.00 | 0.00 | 0.00 | 85 | 989.0 |
| 20260831200034 | 54 | 107 | 2.0 | 6.0 | 0.00 | 0.00 | 0.00 | 86 | 989.0 |
| 20260831194526 | 53 | 107 | 0.0 | 4.0 | 0.00 | 0.00 | 0.00 | 88 | 989.0 |
| 20260831193026 | 52 | 105 | 1.0 | 4.0 | 0.00 | 0.00 | 0.00 | 89 | 989.1 |
| 20260831191523 | 52 | 118 | 0.0 | 3.0 | 0.00 | 0.00 | 0.00 | 90 | 989.3 |
| 20260831190020 | 51 | 115 | 0.0 | 3.0 | 0.00 | 0.00 | 0.00 | 93 | 989.3 |
| 20260831184520 | 52 | 53 | 0.0 | 4.0 | 0.00 | 0.00 | 0.00 | 92 | 989.3 |
| 20260831183020 | 50 | 106 | 0.0 | 2.0 | 0.00 | 0.00 | 0.00 | 94 | 989.4 |
| 20260831181517 | 51 | 101 | 1.0 | 2.0 | 0.00 | 0.00 | 0.00 | 93 | 989.5 |
| 20260831180014 | 51 | 97 | 1.0 | 4.0 | 0.00 | 0.00 | 0.00 | 94 | 989.5 |
| 20260831174512 | 51 | 105 | 2.0 | 4.0 | 0.00 | 0.00 | 0.00 | 97 | 989.6 |
| 20260831173009 | 49 | 131 | 0.0 | 0.0 | 0.00 | 0.00 | 0.00 | 99 | 989.9 |
| 20260831171505 | 47 | 96 | 0.0 | 0.0 | 0.00 | 0.00 | 0.00 | 98 | 990.1 |
| 20260831170008 | 48 | 92 | 0.0 | 0.0 | 0.00 | 0.00 | 0.00 | 99 | 990.3 |
| 20260831164503 | 46 | 111 | 0.0 | 2.0 | 0.00 | 0.00 | 0.00 | 98 | 990.5 |
| 20260831163104 | 47 | 120 | 0.0 | 1.0 | 0.00 | 0.00 | 0.00 | 99 | 990.7 |
| 20260831161556 | 45 | 119 | 0.0 | 0.0 | 0.00 | 0.00 | 0.00 | 98 | 990.9 |
| 20260831160054 | 45 | 119 | 0.0 | 0.0 | 0.00 | 0.00 | 0.00 | 98 | 991.1 |
| 20260831154558 | 44 | 119 | 0.0 | 0.0 | 0.00 | 0.00 | 0.00 | 98 | 991.3 |
| 20260831153049 | 45 | 120 | 0.0 | 0.0 | 0.00 | 0.00 | 0.00 | 97 | 991.5 |
| 20260831151547 | 45 | 119 | 0.0 | 0.0 | 0.00 | 0.00 | 0.00 | 97 | 991.7 |
| 20260831150046 | 45 | 119 | 0.0 | 0.0 | 0.00 | 0.00 | 0.00 | 97 | 991.8 |
| 20260831144545 | 45 | 119 | 0.0 | 0.0 | 0.00 | 0.00 | 0.00 | 97 | 992.1 |
| 20260831143051 | 44 | 119 | 0.0 | 0.0 | 0.00 | 0.00 | 0.00 | 96 | 992.2 |
| 20260831141539 | 45 | 114 | 0.0 | 0.0 | 0.00 | 0.00 | 0.00 | 96 | 992.4 |
| 20260831140037 | 45 | 113 | 0.0 | 1.0 | 0.00 | 0.00 | 0.00 | 96 | 992.6 |
| 20260831134538 | 44 | 105 | 0.0 | 0.0 | 0.00 | 0.00 | 0.00 | 95 | 992.7 |
| 20260831133033 | 45 | 103 | 0.0 | 0.0 | 0.00 | 0.00 | 0.00 | 95 | 992.9 |
| 20260831131542 | 45 | 104 | 0.0 | 0.0 | 0.00 | 0.00 | 0.00 | 94 | 993.1 |
| 20260831130029 | 45 | 103 | 0.0 | 0.0 | 0.00 | 0.00 | 0.00 | 93 | 993.3 |
| 20260831124529 | 46 | 101 | 0.0 | 0.0 | 0.00 | 0.00 | 0.00 | 94 | 993.4 |
| 20260831123029 | 46 | 100 | 0.0 | 0.0 | 0.00 | 0.00 | 0.00 | 94 | 993.6 |
| 20260831121526 | 46 | 104 | 0.0 | 1.0 | 0.00 | 0.00 | 0.00 | 92 | 993.6 |
| 20260831120025 | 47 | 103 | 0.0 | 0.0 | 0.00 | 0.00 | 0.00 | 92 | 993.8 |
| 20260831114525 | 47 | 102 | 0.0 | 0.0 | 0.00 | 0.00 | 0.00 | 91 | 993.7 |
| 20260831113024 | 47 | 106 | 0.0 | 0.0 | 0.00 | 0.00 | 0.00 | 90 | 993.7 |
| 20260831111524 | 48 | 104 | 0.0 | 0.0 | 0.00 | 0.00 | 0.00 | 90 | 993.6 |
| 20260831110023 | 48 | 106 | 0.0 | 0.0 | 0.00 | 0.00 | 0.00 | 89 | 993.6 |
| 20260831104527 | 49 | 107 | 0.0 | 0.0 | 0.00 | 0.00 | 0.00 | 89 | 993.6 |
| 20260831103026 | 49 | 106 | 0.0 | 0.0 | 0.00 | 0.00 | 0.00 | 88 | 993.6 |
| 20260831101522 | 50 | 97 | 0.0 | 3.0 | 0.00 | 0.00 | 0.00 | 86 | 993.7 |
| 20260831100022 | 50 | 284 | 0.0 | 0.0 | 0.00 | 0.00 | 0.00 | 86 | 993.8 |